Total_Precipitation_Accumulation
1.89 2.21 2.56 2.87 3.38 3.39 3.24 3.32 3.49 3.69 3.79 4.07 4.16 4.38 4.72 4.93 5.08 5.12 5.00 4.97 4.86 4.97 5.02 4.81 4.60 4.47 4.46 4.37 4.33 4.14 3.92 3.66 3.54 3.44 3.04 2.50 2.20 2.20 2.17 2.17 2.18 2.14 2.16
2.24 2.40 2.59 3.00 3.48 3.62 3.60 3.60 3.79 4.11 4.32 4.56 5.02 5.31 5.56 5.79 5.99 6.02 5.58 5.38 5.27 5.17 5.10 5.12 5.03 4.84 4.66 4.46 4.28 4.20 4.03 3.69 3.60 3.57 3.43 2.92 2.47 2.08 1.83 1.85 1.86 1.87 2.02
2.47 2.53 2.60 2.95 3.29 3.47 3.56 3.66 3.91 4.33 4.87 5.26 5.74 6.15 6.30 6.32 6.19 5.93 5.80 5.65 5.48 5.32 5.17 5.05 4.83 4.68 4.56 4.39 4.19 4.02 3.91 3.69 3.56 3.52 3.61 3.29 2.83 2.30 1.91 1.70 1.64 1.63 1.75
2.44 2.53 2.67 2.92 3.21 3.42 3.54 3.86 4.36 4.96 5.51 6.00 6.56 7.05 7.13 6.95 6.65 6.20 5.77 5.54 5.28 4.96 4.73 4.61 4.50 4.32 4.01 3.78 3.63 3.55 3.40 3.28 3.13 3.18 3.15 3.00 2.82 2.77 2.49 2.14 1.96 1.87 1.85
2.10 2.34 2.50 2.68 3.06 3.25 3.46 3.80 4.37 5.05 5.74 6.56 7.25 7.69 7.60 7.26 6.83 6.14 5.56 5.10 4.71 4.36 4.10 3.97 3.81 3.59 3.22 2.87 2.74 2.82 2.90 2.91 2.84 2.83 2.87 2.86 2.71 2.66 2.60 2.42 2.23 2.11 1.98
1.83 1.96 2.10 2.33 2.63 2.93 3.21 3.62 4.23 4.91 5.55 6.19 6.72 6.96 6.87 6.67 6.14 5.45 4.83 4.43 4.10 3.76 3.41 3.10 2.85 2.62 2.45 2.26 2.21 2.25 2.34 2.54 2.65 2.77 2.79 2.78 2.68 2.60 2.61 2.50 2.40 2.31 2.15
1.71 1.71 1.79 1.99 2.30 2.48 2.85 3.29 3.73 4.36 4.76 5.09 5.52 5.70 5.73 5.51 5.20 4.72 4.25 3.81 3.32 2.98 2.70 2.43 2.32 2.19 2.08 2.01 2.00 1.98 1.94 2.06 2.25 2.38 2.48 2.54 2.54 2.54 2.59 2.69 2.65 2.46 2.26
1.61 1.61 1.73 1.90 2.16 2.27 2.45 2.68 3.00 3.37 3.54 3.58 3.82 4.08 4.09 4.04 3.91 3.61 3.29 2.99 2.64 2.26 2.02 1.83 1.72 1.71 1.76 1.70 1.73 1.74 1.73 1.74 1.82 1.93 2.13 2.24 2.27 2.30 2.31 2.35 2.47 2.51 2.36
1.42 1.53 1.62 1.65 1.70 1.78 1.89 1.99 2.18 2.35 2.44 2.52 2.59 2.73 2.75 2.73 2.66 2.48 2.23 2.04 1.89 1.65 1.51 1.43 1.41 1.40 1.43 1.49 1.49 1.45 1.47 1.54 1.58 1.60 1.70 1.79 1.82 1.89 1.97 2.05 2.13 2.32 2.36
1.30 1.39 1.47 1.48 1.49 1.49 1.58 1.65 1.73 1.80 1.85 1.92 1.89 1.87 1.89 1.89 1.86 1.71 1.64 1.55 1.43 1.33 1.33 1.26 1.20 1.14 1.13 1.15 1.19 1.22 1.25 1.29 1.35 1.39 1.40 1.45 1.47 1.56 1.66 1.80 1.91 1.98 2.05
1.20 1.27 1.27 1.26 1.27 1.29 1.35 1.43 1.45 1.44 1.44 1.44 1.42 1.40 1.36 1.35 1.39 1.40 1.35 1.28 1.20 1.10 1.07 0.97 0.91 0.88 0.91 0.97 1.02 1.06 1.11 1.15 1.18 1.25 1.27 1.30 1.29 1.36 1.40 1.43 1.50 1.64 1.74
1.29 1.29 1.22 1.16 1.11 1.12 1.16 1.23 1.24 1.23 1.27 1.19 1.09 1.11 1.08 1.07 1.11 1.14 1.06 1.01 1.00 0.93 0.87 0.76 0.73 0.72 0.76 0.82 0.85 0.88 0.92 1.01 1.02 1.03 1.06 1.08 1.09 1.14 1.17 1.22 1.25 1.34 1.47
1.66 1.52 1.33 1.24 1.19 1.14 1.08 1.01 1.04 1.04 1.05 1.03 0.98 0.97 0.95 0.96 0.97 0.98 0.94 0.88 0.87 0.86 0.78 0.69 0.67 0.66 0.67 0.68 0.71 0.75 0.74 0.79 0.86 0.88 0.93 0.94 0.96 0.94 0.91 0.97 1.05 1.13 1.22
1.84 1.64 1.41 1.33 1.30 1.20 1.10 1.03 1.03 0.96 0.90 0.90 0.87 0.88 0.87 0.86 0.86 0.89 0.93 0.88 0.78 0.72 0.68 0.65 0.61 0.60 0.60 0.62 0.62 0.59 0.64 0.70 0.75 0.77 0.81 0.82 0.84 0.85 0.85 0.86 1.00 1.07 1.20
1.76 1.68 1.57 1.48 1.42 1.31 1.23 1.12 1.03 0.94 0.89 0.86 0.84 0.81 0.77 0.75 0.74 0.76 0.79 0.78 0.73 0.63 0.59 0.57 0.54 0.50 0.46 0.44 0.44 0.46 0.52 0.61 0.63 0.67 0.68 0.69 0.75 0.84 0.82 0.80 0.89 0.99 1.14
1.87 1.79 1.70 1.60 1.55 1.43 1.37 1.28 1.16 1.10 1.00 0.93 0.91 0.85 0.80 0.74 0.73 0.70 0.72 0.70 0.63 0.59 0.54 0.52 0.49 0.45 0.35 0.36 0.36 0.37 0.45 0.56 0.60 0.60 0.59 0.56 0.57 0.64 0.71 0.73 0.80 0.91 1.00
1.96 1.84 1.84 1.82 1.75 1.69 1.58 1.42 1.27 1.18 0.99 0.88 0.85 0.83 0.79 0.74 0.70 0.63 0.60 0.61 0.64 0.61 0.55 0.51 0.50 0.52 0.44 0.29 0.25 0.28 0.40 0.55 0.56 0.57 0.61 0.55 0.52 0.60 0.64 0.66 0.66 0.72 0.75
2.13 2.01 1.91 1.86 1.78 1.69 1.56 1.37 1.19 1.02 0.86 0.78 0.76 0.72 0.68 0.68 0.69 0.63 0.60 0.61 0.62 0.59 0.56 0.53 0.56 0.60 0.46 0.30 0.21 0.25 0.39 0.49 0.46 0.48 0.56 0.64 0.67 0.62 0.61 0.63 0.68 0.72 0.73
2.12 2.02 1.88 1.81 1.70 1.51 1.33 1.22 1.02 0.89 0.81 0.75 0.73 0.65 0.57 0.62 0.65 0.63 0.62 0.65 0.62 0.61 0.59 0.57 0.62 0.65 0.51 0.34 0.26 0.29 0.40 0.48 0.47 0.49 0.48 0.50 0.57 0.56 0.61 0.68 0.82 0.86 0.87
1.86 1.81 1.65 1.53 1.47 1.28 1.10 1.04 0.93 0.83 0.79 0.72 0.69 0.61 0.59 0.62 0.66 0.68 0.66 0.60 0.60 0.57 0.52 0.55 0.63 0.62 0.54 0.37 0.29 0.31 0.36 0.46 0.55 0.61 0.60 0.56 0.53 0.52 0.58 0.71 0.85 0.91 0.92
1.54 1.54 1.45 1.38 1.24 1.05 1.01 1.05 1.00 0.87 0.70 0.60 0.59 0.61 0.63 0.59 0.57 0.59 0.61 0.59 0.53 0.54 0.53 0.54 0.58 0.61 0.48 0.35 0.31 0.36 0.42 0.48 0.56 0.64 0.70 0.64 0.57 0.54 0.55 0.61 0.73 0.84 0.84
1.22 1.30 1.34 1.26 1.14 1.03 1.01 1.01 0.97 0.78 0.67 0.65 0.65 0.62 0.58 0.47 0.45 0.54 0.58 0.54 0.53 0.56 0.58 0.60 0.63 0.59 0.46 0.35 0.31 0.34 0.38 0.40 0.51 0.64 0.63 0.60 0.56 0.52 0.55 0.58 0.68 0.77 0.90
1.01 1.07 1.11 1.08 1.05 0.98 0.98 0.97 0.85 0.68 0.65 0.69 0.64 0.59 0.51 0.45 0.44 0.49 0.52 0.50 0.49 0.46 0.45 0.48 0.54 0.50 0.41 0.36 0.28 0.29 0.31 0.32 0.40 0.51 0.52 0.51 0.50 0.54 0.67 0.71 0.76 0.88 1.09
0.86 0.91 0.98 0.99 0.95 0.87 0.84 0.85 0.74 0.71 0.73 0.72 0.62 0.54 0.48 0.42 0.38 0.39 0.37 0.38 0.39 0.39 0.39 0.39 0.41 0.39 0.34 0.27 0.24 0.26 0.29 0.30 0.33 0.42 0.52 0.60 0.66 0.73 0.87 0.98 1.06 1.08 1.11
0.79 0.83 0.92 0.92 0.81 0.73 0.69 0.65 0.68 0.73 0.76 0.69 0.56 0.49 0.41 0.35 0.34 0.29 0.24 0.22 0.24 0.24 0.27 0.25 0.24 0.25 0.24 0.18 0.20 0.23 0.26 0.27 0.30 0.36 0.51 0.73 0.85 0.94 0.98 1.02 1.08 1.07 1.00
0.70 0.76 0.76 0.72 0.65 0.59 0.58 0.53 0.56 0.63 0.61 0.55 0.48 0.39 0.33 0.32 0.26 0.24 0.21 0.16 0.15 0.16 0.18 0.19 0.18 0.15 0.16 0.16 0.16 0.18 0.21 0.23 0.28 0.35 0.57 0.76 0.85 0.91 0.95 0.97 0.95 0.91 0.87